Plattsburgh, NY

6:18 PM EDT on June 26, 2017 (GMT -0400)
Plattsburgh International

Weather History for KPBG - December, 2012

Change the Weather History Date:

Wednesday, December 12, 2012

  Actual Average Record
Temperature  
Mean Temperature 28 °F 26 °F  
Max Temperature 39 °F 34 °F 61 °F (1979)
Min Temperature 16 °F 18 °F -21 °F (1977)
Degree Days  
Heating Degree Days 37 39  
Month to date heating degree days 358 442  
Since 1 July heating degree days 1921 2076  
Cooling Degree Days 0 0  
Month to date cooling degree days 0  
Year to date cooling degree days 346  
Moisture  
Dew Point 22 °F    
Average Humidity 76    
Maximum Humidity 92    
Minimum Humidity 59    
Precipitation  
Precipitation T in - 1.10 in (1952)
Month to date precipitation 0.73  
Year to date precipitation 25.31  
Sea Level Pressure  
Sea Level Pressure 30.31 in    
Wind  
Wind Speed 2 mph (SSW)    
Max Wind Speed 9 mph    
Max Gust Speed 14 mph    
Visibility 10 miles    
Events Snow    
T = Trace of Precipitation, MM = Missing Value Source: NWS Daily Summary

Daily Weather History Graph

Daily Weather History Graph

Search for Another Location

Airport or City:

Trip Planner

Search our weather history database for the weather conditions in past years. The results will help you decide how hot, cold, wet, or windy it might be!

Date:

Astronomy

Dec. 12, 2012 Rise Set
Actual Time 7:22 AM EST 4:13 PM EST
Civil Twilight 6:48 AM EST 4:47 PM EST
Nautical Twilight 6:11 AM EST 5:24 PM EST
Astronomical Twilight 5:36 AM EST 5:59 PM EST
Moon 6:22 AM EST (12/12) 3:48 PM EST (12/12)
Length of Visible Light 9h 58m
Length of Day
8h 51m
Waning Crescent, 1% of the Moon is Illuminated
Dec 12
Waning Crescent
Dec 13
New
Dec 20
First Quarter
Dec 28
Full
Jan 4
Last Quarter

Hourly Weather History & Observations

Time (EST) Temp. Windchill Dew Point Humidity Pressure Visibility Wind Dir Wind Speed Gust Speed Precip Events Conditions
12:53 AM 23.0 °F - 17.1 °F 78% 30.22 in 10.0 mi Calm Calm - N/A   Overcast
1:53 AM 23.0 °F - 17.1 °F 78% 30.23 in 10.0 mi Calm Calm - N/A   Overcast
2:53 AM 21.0 °F 16.2 °F 17.1 °F 85% 30.24 in 10.0 mi WNW 3.5 mph - N/A   Mostly Cloudy
3:53 AM 19.0 °F - 16.0 °F 88% 30.26 in 10.0 mi Calm Calm - N/A   Clear
4:53 AM 18.0 °F - 15.1 °F 88% 30.26 in 10.0 mi Calm Calm - N/A   Clear
5:53 AM 18.0 °F 12.7 °F 15.1 °F 88% 30.28 in 10.0 mi West 3.5 mph - N/A   Clear
6:53 AM 18.0 °F 12.7 °F 16.0 °F 92% 30.31 in 10.0 mi SW 3.5 mph - N/A   Clear
7:53 AM 19.9 °F - 16.0 °F 85% 30.31 in 10.0 mi Calm Calm - N/A   Partly Cloudy
8:53 AM 25.0 °F - 19.9 °F 81% 30.31 in 10.0 mi Calm Calm - N/A   Mostly Cloudy
9:53 AM 28.0 °F 24.2 °F 21.0 °F 75% 30.32 in 10.0 mi WSW 3.5 mph - N/A   Overcast
10:53 AM 28.9 °F 25.2 °F 21.9 °F 75% 30.32 in 8.0 mi South 3.5 mph - 0.00 in Snow Light Snow
11:53 AM 32.0 °F 24.8 °F 23.0 °F 69% 30.30 in 10.0 mi South 8.1 mph - 0.00 in   Overcast
12:53 PM 35.1 °F 29.3 °F 25.0 °F 67% 30.30 in 10.0 mi South 6.9 mph - N/A   Partly Cloudy
1:53 PM 36.0 °F 29.6 °F 25.0 °F 64% 30.30 in 10.0 mi South 8.1 mph - N/A   Scattered Clouds
2:53 PM 37.0 °F - 24.1 °F 59% 30.32 in 10.0 mi Calm Calm - N/A   Clear
3:53 PM 35.1 °F - 25.0 °F 67% 30.33 in 10.0 mi Calm Calm - N/A   Overcast
4:53 PM 34.0 °F 29.8 °F 27.0 °F 75% 30.35 in 10.0 mi South 4.6 mph - N/A   Overcast
5:53 PM 33.1 °F 28.7 °F 26.1 °F 75% 30.35 in 10.0 mi SSW 4.6 mph - N/A   Mostly Cloudy
6:53 PM 34.0 °F - 25.0 °F 70% 30.35 in 10.0 mi Calm Calm - N/A   Overcast
7:53 PM 34.0 °F 29.8 °F 26.1 °F 73% 30.36 in 10.0 mi SW 4.6 mph - N/A   Overcast
8:53 PM 28.9 °F - 24.1 °F 82% 30.36 in 10.0 mi Calm Calm - N/A   Clear
9:53 PM 30.0 °F - 26.1 °F 85% 30.38 in 10.0 mi Calm Calm - N/A   Mostly Cloudy
10:53 PM 32.0 °F - 26.1 °F 79% 30.38 in 10.0 mi Calm Calm - N/A   Overcast
11:53 PM 30.9 °F - 27.0 °F 85% 30.39 in 10.0 mi Calm Calm - N/A   Overcast